Time,TemperatureF,DewpointF,PressureIn,WindDirection,WindDirectionDegrees,WindSpeedMPH,WindSpeedGustMPH,Humidity,HourlyPrecipIn,Conditions,Clouds,dailyrainin,SoftwareType,DateUTC
2013-04-11 00:02:00,49.0,49.0,30.42,North,5,5.0,11.0,100,0.00,,,0.12,,2013-04-11 07:02:00,
2013-04-11 00:12:00,49.0,49.0,30.42,North,5,5.0,11.0,100,0.00,,,0.12,,2013-04-11 07:12:00,
2013-04-11 00:21:00,49.0,49.0,30.41,NW,314,4.0,6.0,100,0.00,,,0.12,,2013-04-11 07:21:00,
2013-04-11 00:32:00,48.0,48.0,30.41,NW,311,3.0,10.0,100,0.00,,,0.12,,2013-04-11 07:32:00,
2013-04-11 00:42:00,48.0,48.0,30.41,NW,311,3.0,10.0,100,0.00,,,0.12,,2013-04-11 07:42:00,
2013-04-11 00:52:00,48.0,48.0,30.41,NE,52,5.0,7.0,100,0.00,,,0.12,,2013-04-11 07:52:00,
2013-04-11 01:02:00,48.0,48.0,30.41,NNE,26,0.0,3.0,100,0.00,,,0.12,,2013-04-11 08:02:00,
2013-04-11 01:12:00,48.0,48.0,30.41,NNE,26,0.0,3.0,100,0.00,,,0.12,,2013-04-11 08:12:00,
2013-04-11 01:22:00,47.0,47.0,30.41,NE,36,0.0,2.0,100,0.00,,,0.12,,2013-04-11 08:22:00,
2013-04-11 01:32:00,47.0,47.0,30.41,East,100,2.0,3.0,100,0.00,,,0.12,,2013-04-11 08:32:00,
2013-04-11 01:42:00,47.0,47.0,30.41,East,100,2.0,3.0,100,0.00,,,0.12,,2013-04-11 08:42:00,
2013-04-11 01:51:00,46.0,46.0,30.42,East,100,0.0,2.0,100,0.00,,,0.12,,2013-04-11 08:51:00,
2013-04-11 02:02:00,46.0,46.0,30.42,East,100,0.0,2.0,100,0.00,,,0.12,,2013-04-11 09:02:00,
2013-04-11 02:12:00,46.0,46.0,30.42,East,100,0.0,2.0,100,0.00,,,0.12,,2013-04-11 09:12:00,
2013-04-11 02:22:00,46.0,46.0,30.42,East,100,1.0,2.0,100,0.00,,,0.12,,2013-04-11 09:22:00,
2013-04-11 02:32:00,46.0,46.0,30.42,East,100,1.0,2.0,100,0.00,,,0.12,,2013-04-11 09:32:00,
2013-04-11 02:42:00,46.0,46.0,30.42,East,100,1.0,2.0,100,0.00,,,0.12,,2013-04-11 09:42:00,
2013-04-11 02:52:00,46.0,46.0,30.42,ESE,113,1.0,3.0,100,0.00,,,0.12,,2013-04-11 09:52:00,
2013-04-11 03:02:00,45.0,45.0,30.41,North,355,1.0,3.0,100,0.00,,,0.12,,2013-04-11 10:02:00,
2013-04-11 03:12:00,45.0,45.0,30.41,NE,43,3.0,6.0,100,0.00,,,0.12,,2013-04-11 10:12:00,
2013-04-11 03:22:00,45.0,45.0,30.41,NE,43,3.0,6.0,100,0.00,,,0.12,,2013-04-11 10:22:00,
2013-04-11 03:32:00,45.0,45.0,30.40,ENE,63,4.0,6.0,100,0.01,,,0.13,,2013-04-11 10:32:00,
2013-04-11 03:42:00,45.0,45.0,30.40,ENE,63,4.0,6.0,100,0.01,,,0.13,,2013-04-11 10:42:00,
2013-04-11 03:52:00,45.0,45.0,30.42,ENE,78,0.0,2.0,100,0.01,,,0.13,,2013-04-11 10:52:00,
2013-04-11 04:02:00,45.0,45.0,30.42,ENE,78,0.0,2.0,100,0.01,,,0.13,,2013-04-11 11:02:00,
2013-04-11 04:12:00,45.0,45.0,30.41,ENE,78,0.0,1.0,100,0.01,,,0.13,,2013-04-11 11:12:00,
2013-04-11 04:22:00,45.0,45.0,30.40,ENE,69,1.0,2.0,100,0.01,,,0.13,,2013-04-11 11:22:00,
2013-04-11 04:32:00,45.0,45.0,30.40,NNW,348,2.0,3.0,100,0.00,,,0.13,,2013-04-11 11:32:00,
2013-04-11 04:42:00,45.0,45.0,30.40,North,5,3.0,5.0,100,0.00,,,0.13,,2013-04-11 11:42:00,
2013-04-11 04:52:00,45.0,45.0,30.40,North,5,3.0,5.0,100,0.00,,,0.13,,2013-04-11 11:52:00,
2013-04-11 05:02:00,45.0,45.0,30.39,North,9,3.0,5.0,100,0.00,,,0.13,,2013-04-11 12:02:00,
2013-04-11 05:22:00,45.0,45.0,30.38,WNW,282,1.0,3.0,100,0.00,,,0.13,,2013-04-11 12:22:00,
2013-04-11 05:32:00,45.0,45.0,30.38,NNW,344,2.0,5.0,100,0.00,,,0.12,,2013-04-11 12:32:00,
2013-04-11 05:42:00,45.0,45.0,30.38,NNW,344,2.0,5.0,100,0.00,,,0.12,,2013-04-11 12:42:00,
2013-04-11 05:52:00,45.0,45.0,30.38,ENE,63,1.0,4.0,100,0.00,,,0.12,,2013-04-11 12:52:00,
2013-04-11 06:02:00,44.0,44.0,30.37,ENE,57,2.0,3.0,100,0.00,,,0.12,,2013-04-11 13:02:00,
2013-04-11 06:12:00,44.0,44.0,30.38,SE,132,3.0,5.0,100,0.00,,,0.12,,2013-04-11 13:12:00,
2013-04-11 06:22:00,44.0,44.0,30.38,SE,132,3.0,5.0,100,0.00,,,0.12,,2013-04-11 13:22:00,
2013-04-11 06:32:00,44.0,44.0,30.38,ESE,117,1.0,4.0,100,0.00,,,0.12,,2013-04-11 13:32:00,
2013-04-11 06:42:00,44.0,44.0,30.38,ESE,117,1.0,4.0,100,0.00,,,0.12,,2013-04-11 13:42:00,
2013-04-11 06:52:00,44.0,44.0,30.38,ESE,117,1.0,4.0,100,0.00,,,0.12,,2013-04-11 13:52:00,
2013-04-11 07:02:00,43.0,43.0,30.38,ESE,116,0.0,2.0,100,0.00,,,0.12,,2013-04-11 14:02:00,
2013-04-11 07:12:00,42.0,42.0,30.39,East,94,1.0,2.0,100,0.00,,,0.12,,2013-04-11 14:12:00,
2013-04-11 07:22:00,42.0,42.0,30.39,East,94,1.0,2.0,100,0.00,,,0.12,,2013-04-11 14:22:00,
2013-04-11 07:32:00,43.0,43.0,30.39,ENE,77,2.0,3.0,100,0.00,,,0.12,,2013-04-11 14:32:00,
2013-04-11 07:42:00,43.0,43.0,30.39,ENE,77,2.0,3.0,100,0.00,,,0.12,,2013-04-11 14:42:00,
2013-04-11 07:52:00,43.0,43.0,30.39,ENE,78,1.0,3.0,100,0.00,,,0.12,,2013-04-11 14:52:00,
2013-04-11 08:02:00,43.0,43.0,30.40,ENE,78,1.0,2.0,100,0.00,,,0.12,,2013-04-11 15:02:00,
2013-04-11 08:12:00,43.0,43.0,30.40,ENE,67,0.0,2.0,100,0.00,,,0.12,,2013-04-11 15:12:00,
2013-04-11 08:21:00,43.0,43.0,30.40,ENE,67,0.0,2.0,100,0.00,,,0.12,,2013-04-11 15:21:00,
2013-04-11 08:32:00,44.0,44.0,30.40,SE,130,3.0,5.0,100,0.00,,,0.11,,2013-04-11 15:32:00,
2013-04-11 08:42:00,44.0,44.0,30.40,SE,130,3.0,5.0,100,0.00,,,0.11,,2013-04-11 15:42:00,
2013-04-11 08:52:00,44.0,44.0,30.40,ESE,111,2.0,5.0,100,0.00,,,0.11,,2013-04-11 15:52:00,
2013-04-11 09:02:00,45.0,45.0,30.40,SSE,150,3.0,5.0,100,0.00,,,0.11,,2013-04-11 16:02:00,
2013-04-11 09:12:00,45.0,45.0,30.40,SSE,150,3.0,5.0,100,0.00,,,0.11,,2013-04-11 16:12:00,
2013-04-11 09:22:00,46.0,46.0,30.40,SSE,153,3.0,6.0,100,0.00,,,0.11,,2013-04-11 16:22:00,
2013-04-11 09:32:00,46.0,46.0,30.40,SE,134,2.0,5.0,100,0.00,,,0.09,,2013-04-11 16:32:00,
2013-04-11 09:41:00,47.0,47.0,30.40,SE,145,2.0,4.0,100,0.00,,,0.09,,2013-04-11 16:41:00,
2013-04-11 09:52:00,47.0,47.0,30.40,SE,145,2.0,4.0,100,0.00,,,0.09,,2013-04-11 16:52:00,
2013-04-11 10:02:00,47.0,47.0,30.40,NW,320,1.0,5.0,100,0.00,,,0.09,,2013-04-11 17:02:00,
2013-04-11 10:12:00,47.0,47.0,30.40,NW,320,1.0,5.0,100,0.00,,,0.09,,2013-04-11 17:12:00,
2013-04-11 10:22:00,48.0,48.0,30.40,North,11,5.0,7.0,100,0.00,,,0.09,,2013-04-11 17:22:00,
2013-04-11 10:32:00,49.0,49.0,30.40,NW,310,3.0,6.0,100,0.00,,,0.04,,2013-04-11 17:32:00,
2013-04-11 10:42:00,49.0,49.0,30.40,NW,310,3.0,6.0,100,0.00,,,0.04,,2013-04-11 17:42:00,
2013-04-11 10:52:00,49.0,49.0,30.40,WNW,298,5.0,7.0,100,0.00,,,0.04,,2013-04-11 17:52:00,
2013-04-11 11:02:00,50.0,50.0,30.40,WNW,286,5.0,7.0,100,0.00,,,0.04,,2013-04-11 18:02:00,
2013-04-11 11:12:00,50.0,50.0,30.40,WNW,286,5.0,7.0,100,0.00,,,0.04,,2013-04-11 18:12:00,
2013-04-11 11:22:00,49.0,49.0,30.40,NW,313,4.0,10.0,100,0.00,,,0.04,,2013-04-11 18:22:00,
2013-04-11 11:32:00,49.0,49.0,30.39,West,281,6.0,11.0,100,0.00,,,0.02,,2013-04-11 18:32:00,
2013-04-11 11:42:00,49.0,49.0,30.39,West,281,6.0,11.0,100,0.00,,,0.02,,2013-04-11 18:42:00,
2013-04-11 11:52:00,49.0,49.0,30.40,WNW,284,9.0,14.0,100,0.00,,,0.02,,2013-04-11 18:52:00,
2013-04-11 12:03:00,49.0,49.0,30.40,WNW,303,11.0,16.0,100,0.00,,,0.02,,2013-04-11 19:03:00,
2013-04-11 12:13:00,49.0,49.0,30.40,WNW,303,11.0,16.0,100,0.00,,,0.02,,2013-04-11 19:13:00,
2013-04-11 12:21:00,50.0,50.0,30.40,WNW,300,7.0,14.0,100,0.00,,,0.02,,2013-04-11 19:21:00,
2013-04-11 12:32:00,50.0,50.0,30.40,NW,322,11.0,14.0,100,0.00,,,0.02,,2013-04-11 19:32:00,
2013-04-11 12:42:00,50.0,50.0,30.40,NW,322,11.0,14.0,100,0.00,,,0.02,,2013-04-11 19:42:00,
2013-04-11 12:52:00,50.0,50.0,30.40,NW,310,10.0,16.0,100,0.00,,,0.02,,2013-04-11 19:52:00,
2013-04-11 13:02:00,51.0,51.0,30.40,NW,311,10.0,16.0,100,0.00,,,0.02,,2013-04-11 20:02:00,
2013-04-11 13:12:00,51.0,51.0,30.40,NW,311,10.0,16.0,100,0.00,,,0.02,,2013-04-11 20:12:00,
2013-04-11 13:21:00,50.0,50.0,30.39,WNW,302,12.0,18.0,100,0.00,,,0.02,,2013-04-11 20:21:00,
2013-04-11 13:33:00,50.0,50.0,30.39,WNW,289,11.0,18.0,100,0.00,,,0.01,,2013-04-11 20:33:00,
2013-04-11 13:42:00,50.0,50.0,30.39,WNW,289,11.0,18.0,100,0.00,,,0.01,,2013-04-11 20:42:00,
2013-04-11 13:52:00,51.0,51.0,30.38,WNW,299,11.0,16.0,100,0.00,,,0.01,,2013-04-11 20:52:00,
2013-04-11 14:02:00,51.0,51.0,30.38,NNW,342,10.0,17.0,100,0.00,,,0.01,,2013-04-11 21:02:00,
2013-04-11 14:12:00,51.0,51.0,30.38,NNW,342,10.0,17.0,100,0.00,,,0.01,,2013-04-11 21:12:00,
2013-04-11 14:22:00,51.0,51.0,30.38,WNW,298,12.0,18.0,100,0.00,,,0.01,,2013-04-11 21:22:00,
2013-04-11 14:32:00,50.0,50.0,30.37,NW,310,11.0,17.0,100,0.00,,,0.01,,2013-04-11 21:32:00,
2013-04-11 14:42:00,50.0,50.0,30.37,NW,310,11.0,17.0,100,0.00,,,0.01,,2013-04-11 21:42:00,
2013-04-11 14:53:00,51.0,51.0,30.37,WNW,298,11.0,15.0,100,0.00,,,0.01,,2013-04-11 21:53:00,
2013-04-11 15:02:00,51.0,51.0,30.36,NW,304,9.0,16.0,100,0.00,,,0.01,,2013-04-11 22:02:00,
2013-04-11 15:13:00,51.0,51.0,30.36,NW,304,9.0,16.0,100,0.00,,,0.01,,2013-04-11 22:13:00,
2013-04-11 15:22:00,51.0,51.0,30.37,NW,312,13.0,16.0,100,0.00,,,0.01,,2013-04-11 22:22:00,
2013-04-11 15:32:00,51.0,51.0,30.36,WNW,294,11.0,17.0,100,0.00,,,0.01,,2013-04-11 22:32:00,
2013-04-11 15:43:00,51.0,51.0,30.36,WNW,294,11.0,17.0,100,0.00,,,0.01,,2013-04-11 22:43:00,
2013-04-11 15:52:00,51.0,51.0,30.36,NNW,331,11.0,17.0,100,0.00,,,0.01,,2013-04-11 22:52:00,
2013-04-11 16:03:00,51.0,51.0,30.36,WNW,288,11.0,18.0,100,0.00,,,0.01,,2013-04-11 23:03:00,
2013-04-11 16:12:00,51.0,51.0,30.36,WNW,288,11.0,18.0,100,0.00,,,0.01,,2013-04-11 23:12:00,
2013-04-11 16:22:00,51.0,51.0,30.35,WNW,284,12.0,19.0,100,0.00,,,0.01,,2013-04-11 23:22:00,
2013-04-11 16:32:00,51.0,51.0,30.33,WNW,294,12.0,17.0,100,0.00,,,0.01,,2013-04-11 23:32:00,
2013-04-11 16:42:00,51.0,51.0,30.33,WNW,294,12.0,17.0,100,0.00,,,0.01,,2013-04-11 23:42:00,
2013-04-11 16:52:00,50.0,50.0,30.33,WNW,302,13.0,18.0,100,0.00,,,0.01,,2013-04-11 23:52:00,
2013-04-11 17:02:00,50.0,50.0,30.32,NW,323,10.0,18.0,100,0.00,,,0.01,,2013-04-12 00:02:00,
2013-04-11 17:12:00,50.0,50.0,30.32,NW,323,10.0,18.0,100,0.00,,,0.01,,2013-04-12 00:12:00,
2013-04-11 17:21:00,51.0,51.0,30.32,WNW,302,10.0,17.0,100,0.00,,,0.01,,2013-04-12 00:21:00,
2013-04-11 17:32:00,50.0,50.0,30.32,WNW,294,13.0,16.0,100,0.00,,,0.01,,2013-04-12 00:32:00,
2013-04-11 17:42:00,50.0,50.0,30.32,WNW,294,13.0,16.0,100,0.00,,,0.01,,2013-04-12 00:42:00,
2013-04-11 17:52:00,50.0,50.0,30.31,WNW,297,13.0,17.0,100,0.00,,,0.01,,2013-04-12 00:52:00,
2013-04-11 18:02:00,50.0,50.0,30.30,NW,306,13.0,18.0,100,0.00,,,0.01,,2013-04-12 01:02:00,
2013-04-11 18:12:00,50.0,50.0,30.30,NW,306,13.0,18.0,100,0.00,,,0.01,,2013-04-12 01:12:00,
2013-04-11 18:22:00,50.0,50.0,30.30,NW,306,12.0,17.0,100,0.00,,,0.01,,2013-04-12 01:22:00,
2013-04-11 18:32:00,50.0,50.0,30.29,WNW,301,14.0,17.0,100,0.00,,,0.01,,2013-04-12 01:32:00,
2013-04-11 18:42:00,50.0,50.0,30.29,WNW,301,14.0,17.0,100,0.00,,,0.01,,2013-04-12 01:42:00,
2013-04-11 18:52:00,50.0,50.0,30.29,WNW,302,13.0,18.0,100,0.00,,,0.01,,2013-04-12 01:52:00,
2013-04-11 19:02:00,50.0,50.0,30.29,WNW,297,10.0,18.0,100,0.00,,,0.01,,2013-04-12 02:02:00,
2013-04-11 19:12:00,50.0,50.0,30.29,WNW,297,10.0,18.0,100,0.00,,,0.01,,2013-04-12 02:12:00,
2013-04-11 19:22:00,50.0,50.0,30.28,NNE,17,7.0,16.0,100,0.00,,,0.01,,2013-04-12 02:22:00,
2013-04-11 19:32:00,49.0,49.0,30.28,NNW,336,11.0,17.0,100,0.00,,,0.01,,2013-04-12 02:32:00,
2013-04-11 19:42:00,49.0,49.0,30.28,NNW,336,11.0,17.0,100,0.00,,,0.01,,2013-04-12 02:42:00,
2013-04-11 19:52:00,49.0,49.0,30.27,NW,313,11.0,17.0,100,0.00,,,0.01,,2013-04-12 02:52:00,
2013-04-11 20:02:00,49.0,49.0,30.27,WNW,301,10.0,19.0,100,0.00,,,0.01,,2013-04-12 03:02:00,
2013-04-11 20:12:00,49.0,49.0,30.27,WNW,301,10.0,19.0,100,0.00,,,0.01,,2013-04-12 03:12:00,
2013-04-11 20:21:00,48.0,48.0,30.27,NW,312,12.0,19.0,100,0.00,,,0.01,,2013-04-12 03:21:00,
2013-04-11 20:33:00,48.0,48.0,30.27,NNW,339,11.0,16.0,100,0.00,,,0.01,,2013-04-12 03:33:00,
2013-04-11 20:43:00,48.0,48.0,30.27,NNW,339,11.0,16.0,100,0.00,,,0.01,,2013-04-12 03:43:00,
2013-04-11 20:52:00,48.0,48.0,30.27,NW,307,8.0,14.0,100,0.00,,,0.01,,2013-04-12 03:52:00,
2013-04-11 21:02:00,47.0,47.0,30.27,NW,316,8.0,16.0,100,0.00,,,0.01,,2013-04-12 04:02:00,
2013-04-11 21:13:00,47.0,47.0,30.27,NW,316,8.0,16.0,100,0.00,,,0.01,,2013-04-12 04:13:00,
2013-04-11 21:22:00,47.0,47.0,30.27,NW,325,5.0,17.0,100,0.00,,,0.01,,2013-04-12 04:22:00,
2013-04-11 21:33:00,47.0,47.0,30.27,WNW,296,5.0,14.0,100,0.00,,,0.01,,2013-04-12 04:33:00,
2013-04-11 21:43:00,47.0,47.0,30.27,WNW,296,5.0,14.0,100,0.00,,,0.01,,2013-04-12 04:43:00,
2013-04-11 21:52:00,47.0,47.0,30.27,North,355,9.0,15.0,100,0.00,,,0.01,,2013-04-12 04:52:00,
2013-04-11 22:02:00,47.0,47.0,30.27,North,355,3.0,13.0,100,0.00,,,0.01,,2013-04-12 05:02:00,
2013-04-11 22:12:00,47.0,47.0,30.27,North,355,3.0,13.0,100,0.00,,,0.01,,2013-04-12 05:12:00,
2013-04-11 22:22:00,47.0,47.0,30.27,North,11,5.0,12.0,100,0.00,,,0.01,,2013-04-12 05:22:00,
2013-04-11 22:32:00,47.0,47.0,30.26,NNE,21,2.0,7.0,100,0.00,,,0.01,,2013-04-12 05:32:00,
2013-04-11 22:42:00,47.0,47.0,30.26,NNE,21,2.0,7.0,100,0.00,,,0.01,,2013-04-12 05:42:00,
2013-04-11 22:52:00,46.0,46.0,30.26,ENE,63,1.0,3.0,100,0.00,,,0.01,,2013-04-12 05:52:00,
2013-04-11 23:02:00,46.0,46.0,30.26,East,96,2.0,2.0,100,0.00,,,0.01,,2013-04-12 06:02:00,
2013-04-11 23:12:00,46.0,46.0,30.26,East,96,2.0,2.0,100,0.00,,,0.01,,2013-04-12 06:12:00,
2013-04-11 23:22:00,45.0,45.0,30.25,East,89,1.0,3.0,100,0.00,,,0.01,,2013-04-12 06:22:00,
2013-04-11 23:32:00,45.0,45.0,30.25,East,82,0.0,3.0,100,0.00,,,0.01,,2013-04-12 06:32:00,
2013-04-11 23:42:00,45.0,45.0,30.25,East,82,0.0,3.0,100,0.00,,,0.01,,2013-04-12 06:42:00,
2013-04-11 23:52:00,44.0,44.0,30.24,ENE,64,1.0,2.0,100,0.00,,,0.01,,2013-04-12 06:52:00,